Location: ??????
(33.3472°N, 35.4764°E)
Time: 12:30:49
(UTC+00:00)

Cosmos 2123 Rocket - Pass Details

Date: 21 August 2019
Orbit: 961 x 992 km, 82.9° (Epoch: 22 October)

Event Time Altitude Azimuth Distance (km) Brightness Sun altitude
Exits shadow 00:21:50 81° 89° (E) 984 3.9 -30.5°
Drops below altitude 10° 00:28:04 10° 8° (N) 2,728 6.9 -29.5°
Sets 00:30:35 0° 8° (N) 3,684 7.7 -29.1°
